Location: Asbacherhof
(48.8543°N, 10.7903°E)
Time: 23:42:38
(UTC+00:00)

Cosmos 1238 Rocket - Pass Details

Date: 26 May 2022
Orbit: 373 x 997 km, 82.9° (Epoch: 26 June)

Event Time Altitude Azimuth Distance (km) Brightness Sun altitude
Rises 00:09:27 0° 339° (NNW) 2,250 6.9 -19.0°
Reaches altitude 10° 00:11:35 10° 326° (NW) 1,395 5.4 -18.9°
Enters shadow 00:13:43 24° 281° (W) 846 3.7 -18.8°
